* Astronomy

Members Login
Username 
 
Password 
    Remember Me  
Post Info TOPIC: Asteroid 2015 YJ


L

Posts: 131433
Date:
Asteroid 2015 YJ
Permalink  
 


Orbital elements:
2015 YJ                                                  Earth MOID = 0.0002 AU
Epoch 2016 Jan. 13.0 TT = JDT 2457400.5                 MPC
M  58.67807              (2000.0)            P               Q
n   0.69325855     Peri.   77.39524     +0.96049301     +0.27829586
a   1.2643653      Node   266.44621     -0.25616540     +0.88105079
e   0.5237110      Incl.    0.12304     -0.10877713     +0.38249304
P   1.42           H   28.0           G   0.15           U   7

MPEC 2015 - Y28



__________________
Page 1 of 1  sorted by
 
Quick Reply

Please log in to post quick replies.



Create your own FREE Forum
Report Abuse
Powered by ActiveBoard